Time,TemperatureF,DewpointF,PressureIn,WindDirection,WindDirectionDegrees,WindSpeedMPH,WindSpeedGustMPH,Humidity,HourlyPrecipIn,Conditions,Clouds,dailyrainin,SoftwareType,DateUTC
2013-05-10 00:01:00,56.2,55.4,29.91,SE,140,0.0,0.0,97,0.00,,CLR,0.00,VWS V12.08,2013-05-10 04:01:00,
2013-05-10 00:11:00,56.0,55.5,29.91,SE,140,0.0,0.0,98,0.00,,CLR,0.00,VWS V12.08,2013-05-10 04:11:00,
2013-05-10 00:21:00,55.9,55.3,29.91,SE,140,0.0,0.0,98,0.00,,CLR,0.00,VWS V12.08,2013-05-10 04:21:00,
2013-05-10 00:31:00,55.7,55.2,29.91,SE,140,0.0,0.0,98,0.00,,CLR,0.00,VWS V12.08,2013-05-10 04:31:00,
2013-05-10 00:41:00,55.6,55.0,29.91,SE,140,0.0,0.0,98,0.00,,CLR,0.00,VWS V12.08,2013-05-10 04:41:00,
2013-05-10 00:51:00,55.4,55.1,29.91,SE,140,0.0,0.0,99,0.00,,CLR,0.00,VWS V12.08,2013-05-10 04:51:00,
2013-05-10 01:01:00,55.1,54.5,29.91,SE,140,0.0,0.0,98,0.00,,CLR,0.00,VWS V12.08,2013-05-10 05:01:00,
2013-05-10 01:11:00,54.7,54.4,29.91,SE,140,0.0,0.0,99,0.00,,CLR,0.00,VWS V12.08,2013-05-10 05:11:00,
2013-05-10 01:21:00,54.5,54.2,29.90,SE,140,0.0,0.0,99,0.00,,CLR,0.00,VWS V12.08,2013-05-10 05:21:00,
2013-05-10 01:31:00,54.2,53.9,29.90,SE,140,0.0,0.0,99,0.00,,CLR,0.00,VWS V12.08,2013-05-10 05:31:00,
2013-05-10 01:41:00,54.5,54.2,29.90,SE,140,0.0,0.0,99,0.00,,CLR,0.00,VWS V12.08,2013-05-10 05:41:00,
2013-05-10 01:51:00,54.5,54.5,29.90,SE,140,0.0,0.0,100,0.00,,CLR,0.00,VWS V12.08,2013-05-10 05:51:00,
2013-05-10 02:01:00,54.5,54.5,29.90,SE,140,0.0,0.0,100,0.00,,CLR,0.00,VWS V12.08,2013-05-10 06:01:00,
2013-05-10 02:11:00,54.8,54.8,29.90,SE,140,0.0,0.0,100,0.00,,CLR,0.00,VWS V12.08,2013-05-10 06:11:00,
2013-05-10 02:21:00,54.8,54.8,29.90,SE,140,0.0,0.0,100,0.00,,CLR,0.00,VWS V12.08,2013-05-10 06:21:00,
2013-05-10 02:31:00,54.7,54.7,29.90,SE,140,0.0,0.0,100,0.00,,CLR,0.00,VWS V12.08,2013-05-10 06:31:00,
2013-05-10 02:41:00,54.7,54.7,29.90,SE,140,0.0,0.0,100,0.00,,CLR,0.00,VWS V12.08,2013-05-10 06:41:00,
2013-05-10 02:51:00,54.7,54.7,29.90,SE,140,0.0,0.0,100,0.00,,CLR,0.00,VWS V12.08,2013-05-10 06:51:00,
2013-05-10 03:01:00,54.7,54.7,29.91,SE,140,0.0,0.0,100,0.00,,CLR,0.00,VWS V12.08,2013-05-10 07:01:00,
2013-05-10 03:11:00,54.7,54.7,29.91,SE,140,0.0,0.0,100,0.00,,CLR,0.00,VWS V12.08,2013-05-10 07:11:00,
2013-05-10 03:21:00,54.5,54.5,29.91,SE,140,0.0,0.0,100,0.00,,CLR,0.00,VWS V12.08,2013-05-10 07:21:00,
2013-05-10 03:31:00,54.5,54.5,29.92,SE,140,0.0,0.0,100,0.00,,CLR,0.00,VWS V12.08,2013-05-10 07:31:00,
2013-05-10 03:41:00,54.2,54.2,29.92,SE,140,0.0,0.0,100,0.00,,CLR,0.00,VWS V12.08,2013-05-10 07:41:00,
2013-05-10 03:51:00,54.2,54.2,29.92,SE,140,0.0,0.0,100,0.00,,CLR,0.00,VWS V12.08,2013-05-10 07:51:00,
2013-05-10 04:01:00,54.1,54.1,29.92,SE,140,0.0,0.0,100,0.00,,,0.00,VWS V12.08,2013-05-10 08:01:00,
2013-05-10 04:11:00,53.9,53.9,29.92,SE,140,0.0,0.0,100,0.00,,,0.00,VWS V12.08,2013-05-10 08:11:00,
2013-05-10 04:21:00,53.8,53.8,29.92,SE,140,0.0,0.0,100,0.00,,,0.00,VWS V12.08,2013-05-10 08:21:00,
2013-05-10 04:31:00,53.9,53.9,29.92,SE,140,0.0,0.0,100,0.00,,,0.00,VWS V12.08,2013-05-10 08:31:00,
2013-05-10 04:41:00,53.9,53.9,29.92,SE,140,0.0,0.0,100,0.00,,,0.00,VWS V12.08,2013-05-10 08:41:00,
2013-05-10 04:51:00,53.8,53.8,29.92,SE,140,0.0,0.0,100,0.00,,,0.00,VWS V12.08,2013-05-10 08:51:00,
2013-05-10 05:01:00,53.8,53.8,29.93,SE,140,0.0,0.0,100,0.00,,,0.00,VWS V12.08,2013-05-10 09:01:00,
2013-05-10 05:11:00,53.6,53.6,29.93,SE,140,0.0,0.0,100,0.00,,,0.00,VWS V12.08,2013-05-10 09:11:00,
2013-05-10 05:21:00,53.5,53.5,29.93,SE,140,0.0,0.0,100,0.00,,,0.00,VWS V12.08,2013-05-10 09:21:00,
2013-05-10 05:31:00,53.3,53.3,29.93,SE,140,0.0,0.0,100,0.00,,,0.00,VWS V12.08,2013-05-10 09:31:00,
2013-05-10 05:41:00,53.3,53.3,29.93,SE,140,0.0,0.0,100,0.00,,,0.00,VWS V12.08,2013-05-10 09:41:00,
2013-05-10 05:51:00,53.2,53.2,29.93,SE,140,0.0,0.0,100,0.00,,,0.00,VWS V12.08,2013-05-10 09:51:00,
2013-05-10 06:01:00,53.2,53.2,29.94,SE,140,0.0,0.0,100,0.00,,,0.00,VWS V12.08,2013-05-10 10:01:00,
2013-05-10 06:11:00,53.2,53.2,29.94,SE,140,0.0,0.0,100,0.00,,,0.00,VWS V12.08,2013-05-10 10:11:00,
2013-05-10 06:21:00,53.5,53.5,29.94,SE,140,0.0,0.0,100,0.00,,,0.00,VWS V12.08,2013-05-10 10:21:00,
2013-05-10 06:31:00,53.3,53.3,29.94,SE,140,0.0,0.0,100,0.00,,,0.00,VWS V12.08,2013-05-10 10:31:00,
2013-05-10 06:41:00,53.5,53.5,29.94,SE,140,0.0,0.0,100,0.00,,,0.00,VWS V12.08,2013-05-10 10:41:00,
2013-05-10 06:51:00,53.6,53.6,29.95,North,5,0.0,0.0,100,0.00,,,0.00,VWS V12.08,2013-05-10 10:51:00,
2013-05-10 07:01:00,54.5,54.5,29.95,North,5,0.0,0.0,100,0.00,,,0.00,VWS V12.08,2013-05-10 11:01:00,
2013-05-10 07:11:00,55.3,55.3,29.95,North,5,0.0,2.0,100,0.00,,,0.00,VWS V12.08,2013-05-10 11:11:00,
2013-05-10 07:21:00,56.3,56.3,29.95,North,5,0.0,0.0,100,0.00,,,0.00,VWS V12.08,2013-05-10 11:21:00,
2013-05-10 07:31:00,57.3,57.3,29.95,North,5,0.0,0.0,100,0.00,,,0.00,VWS V12.08,2013-05-10 11:31:00,
2013-05-10 07:41:00,58.4,58.4,29.95,North,5,0.0,0.0,100,0.00,,,0.00,VWS V12.08,2013-05-10 11:41:00,
2013-05-10 07:51:00,59.3,59.3,29.95,North,5,0.0,1.0,100,0.00,,,0.00,VWS V12.08,2013-05-10 11:51:00,
2013-05-10 08:01:00,60.1,60.1,29.95,North,5,0.0,0.0,100,0.00,,,0.00,VWS V12.08,2013-05-10 12:01:00,
2013-05-10 08:11:00,60.9,60.9,29.95,North,5,0.0,2.0,100,0.00,,,0.00,VWS V12.08,2013-05-10 12:11:00,
2013-05-10 08:21:00,61.5,61.5,29.95,NNW,335,0.0,4.0,100,0.00,,,0.00,VWS V12.08,2013-05-10 12:21:00,
2013-05-10 08:31:00,62.1,62.1,29.95,NNW,335,0.0,1.0,100,0.00,,,0.00,VWS V12.08,2013-05-10 12:31:00,
2013-05-10 08:41:00,62.6,61.5,29.95,NNW,335,0.0,1.0,96,0.00,,,0.00,VWS V12.08,2013-05-10 12:41:00,
2013-05-10 08:51:00,63.2,60.5,29.95,NNW,339,0.0,1.0,91,0.00,,,0.00,VWS V12.08,2013-05-10 12:51:00,
2013-05-10 09:01:00,64.2,60.6,29.95,NNW,339,0.0,0.0,88,0.00,,CLR,0.00,VWS V12.08,2013-05-10 13:01:00,
2013-05-10 09:11:00,65.2,59.9,29.95,NNW,339,1.0,2.0,83,0.00,,CLR,0.00,VWS V12.08,2013-05-10 13:11:00,
2013-05-10 09:21:00,65.8,59.5,29.95,NNW,341,0.0,2.0,80,0.00,,CLR,0.00,VWS V12.08,2013-05-10 13:21:00,
2013-05-10 09:31:00,66.6,59.9,29.95,NNW,344,0.0,2.0,79,0.00,,CLR,0.00,VWS V12.08,2013-05-10 13:31:00,
2013-05-10 09:41:00,67.4,58.1,29.95,North,360,0.0,2.0,72,0.00,,CLR,0.00,VWS V12.08,2013-05-10 13:41:00,
2013-05-10 09:51:00,68.4,59.0,29.95,North,360,0.0,0.0,72,0.00,,CLR,0.00,VWS V12.08,2013-05-10 13:51:00,
2013-05-10 10:01:00,69.1,58.9,29.95,West,272,0.0,3.0,70,0.00,,CLR,0.00,VWS V12.08,2013-05-10 14:01:00,
2013-05-10 10:11:00,69.6,58.2,29.95,SW,223,0.0,4.0,67,0.00,,CLR,0.00,VWS V12.08,2013-05-10 14:11:00,
2013-05-10 10:21:00,70.4,59.3,29.95,East,98,0.0,4.0,68,0.00,,CLR,0.00,VWS V12.08,2013-05-10 14:21:00,
2013-05-10 10:31:00,71.1,59.6,29.95,NNE,30,2.0,4.0,67,0.00,,CLR,0.00,VWS V12.08,2013-05-10 14:31:00,
2013-05-10 10:41:00,71.8,60.7,29.95,North,5,0.0,2.0,68,0.00,,CLR,0.00,VWS V12.08,2013-05-10 14:41:00,
2013-05-10 10:51:00,72.1,57.5,29.94,NW,321,0.0,5.0,60,0.00,,CLR,0.00,VWS V12.08,2013-05-10 14:51:00,
2013-05-10 11:01:00,72.8,59.0,29.94,SW,226,0.0,3.0,62,0.00,,CLR,0.00,VWS V12.08,2013-05-10 15:01:00,
2013-05-10 11:11:00,73.3,59.5,29.94,SSW,198,0.0,6.0,62,0.00,,CLR,0.00,VWS V12.08,2013-05-10 15:11:00,
2013-05-10 11:21:00,74.4,60.1,29.93,SSW,213,1.0,3.0,61,0.00,,CLR,0.00,VWS V12.08,2013-05-10 15:21:00,
2013-05-10 11:31:00,75.3,57.5,29.93,ESE,111,2.0,4.0,54,0.00,,CLR,0.00,VWS V12.08,2013-05-10 15:31:00,
2013-05-10 11:41:00,75.8,56.4,29.93,NW,324,0.0,5.0,51,0.00,,CLR,0.00,VWS V12.08,2013-05-10 15:41:00,
2013-05-10 11:51:00,76.3,59.5,29.93,WSW,244,0.0,2.0,56,0.00,,CLR,0.00,VWS V12.08,2013-05-10 15:51:00,
2013-05-10 12:01:00,76.1,58.8,29.93,SSW,209,1.0,3.0,55,0.00,,CLR,0.00,VWS V12.08,2013-05-10 16:01:00,
2013-05-10 12:11:00,75.6,60.8,29.93,West,275,1.0,3.0,60,0.00,,CLR,0.00,VWS V12.08,2013-05-10 16:11:00,
2013-05-10 12:21:00,76.1,58.3,29.93,SE,144,3.0,5.0,54,0.00,,CLR,0.00,VWS V12.08,2013-05-10 16:21:00,
2013-05-10 12:31:00,77.0,58.0,29.93,SSW,195,2.0,4.0,52,0.00,,CLR,0.00,VWS V12.08,2013-05-10 16:31:00,
2013-05-10 12:41:00,77.7,60.3,29.93,North,355,0.0,6.0,55,0.00,,CLR,0.00,VWS V12.08,2013-05-10 16:41:00,
2013-05-10 12:51:00,78.8,57.5,29.92,WNW,295,0.0,4.0,48,0.00,,CLR,0.00,VWS V12.08,2013-05-10 16:51:00,
2013-05-10 13:01:00,79.9,56.7,29.91,NW,316,0.0,2.0,45,0.00,,CLR,0.00,VWS V12.08,2013-05-10 17:01:00,
2013-05-10 13:11:00,80.3,58.2,29.91,SSW,196,1.0,6.0,47,0.00,,CLR,0.00,VWS V12.08,2013-05-10 17:11:00,
2013-05-10 13:21:00,80.9,57.6,29.91,NNW,333,0.0,3.0,45,0.00,,CLR,0.00,VWS V12.08,2013-05-10 17:21:00,
2013-05-10 13:31:00,81.4,57.4,29.90,WNW,293,2.0,4.0,44,0.00,,CLR,0.00,VWS V12.08,2013-05-10 17:31:00,
2013-05-10 13:41:00,81.6,56.3,29.90,ENE,75,1.0,4.0,42,0.00,,CLR,0.00,VWS V12.08,2013-05-10 17:41:00,
2013-05-10 13:51:00,81.6,59.4,29.90,SSE,163,1.0,4.0,47,0.00,,CLR,0.00,VWS V12.08,2013-05-10 17:51:00,
2013-05-10 14:01:00,81.8,58.4,29.90,NW,320,0.0,5.0,45,0.00,,CLR,0.00,VWS V12.08,2013-05-10 18:01:00,
2013-05-10 14:11:00,82.0,53.9,29.90,SE,142,1.0,6.0,38,0.00,,CLR,0.00,VWS V12.08,2013-05-10 18:11:00,
2013-05-10 14:21:00,81.1,54.5,29.89,NNW,344,2.0,7.0,40,0.00,,CLR,0.00,VWS V12.08,2013-05-10 18:21:00,
2013-05-10 14:31:00,82.4,53.5,29.89,WNW,283,0.0,4.0,37,0.00,,CLR,0.00,VWS V12.08,2013-05-10 18:31:00,
2013-05-10 14:41:00,82.6,49.8,29.89,WNW,297,0.0,5.0,32,0.00,,CLR,0.00,VWS V12.08,2013-05-10 18:41:00,
2013-05-10 14:51:00,82.8,50.8,29.89,NNW,333,0.0,4.0,33,0.00,,CLR,0.00,VWS V12.08,2013-05-10 18:51:00,
2013-05-10 15:01:00,83.0,58.9,29.88,NW,309,1.0,5.0,44,0.00,,CLR,0.00,VWS V12.08,2013-05-10 19:01:00,
2013-05-10 15:11:00,82.8,54.6,29.88,WSW,248,0.0,2.0,38,0.00,,CLR,0.00,VWS V12.08,2013-05-10 19:11:00,
2013-05-10 15:21:00,83.4,53.7,29.88,West,271,0.0,5.0,36,0.00,,CLR,0.00,VWS V12.08,2013-05-10 19:21:00,
2013-05-10 15:31:00,83.0,52.6,29.87,North,9,2.0,4.0,35,0.00,,CLR,0.00,VWS V12.08,2013-05-10 19:31:00,
2013-05-10 15:41:00,83.8,53.3,29.87,NNW,336,0.0,2.0,35,0.00,,CLR,0.00,VWS V12.08,2013-05-10 19:41:00,
2013-05-10 15:51:00,83.6,54.6,29.87,NW,320,0.0,3.0,37,0.00,,CLR,0.00,VWS V12.08,2013-05-10 19:51:00,
2013-05-10 16:01:00,83.8,53.3,29.87,NW,321,0.0,3.0,35,0.00,,CLR,0.00,VWS V12.08,2013-05-10 20:01:00,
2013-05-10 16:11:00,83.8,54.0,29.87,West,264,0.0,5.0,36,0.00,,CLR,0.00,VWS V12.08,2013-05-10 20:11:00,
2013-05-10 16:21:00,83.4,54.4,29.87,SSE,159,0.0,3.0,37,0.00,,CLR,0.00,VWS V12.08,2013-05-10 20:21:00,
2013-05-10 16:31:00,84.0,57.1,29.86,NNW,346,0.0,4.0,40,0.00,,CLR,0.00,VWS V12.08,2013-05-10 20:31:00,
2013-05-10 16:41:00,83.4,56.6,29.86,SSE,158,0.0,4.0,40,0.00,,CLR,0.00,VWS V12.08,2013-05-10 20:41:00,
2013-05-10 16:51:00,82.6,55.9,29.85,SW,215,0.0,3.0,40,0.00,,CLR,0.00,VWS V12.08,2013-05-10 20:51:00,
2013-05-10 17:01:00,82.2,54.8,29.86,SSW,205,0.0,4.0,39,0.00,,CLR,0.00,VWS V12.08,2013-05-10 21:01:00,
2013-05-10 17:11:00,82.4,55.7,29.86,SW,218,2.0,2.0,40,0.00,,CLR,0.00,VWS V12.08,2013-05-10 21:11:00,
2013-05-10 17:21:00,82.4,59.0,29.85,SW,218,0.0,2.0,45,0.00,,CLR,0.00,VWS V12.08,2013-05-10 21:21:00,
2013-05-10 17:31:00,81.1,57.2,29.85,SW,218,0.0,0.0,44,0.00,,CLR,0.00,VWS V12.08,2013-05-10 21:31:00,
2013-05-10 17:41:00,79.2,57.2,29.85,SW,217,0.0,1.0,47,0.00,,CLR,0.00,VWS V12.08,2013-05-10 21:41:00,
2013-05-10 17:51:00,78.1,61.6,29.85,SW,217,0.0,1.0,57,0.00,,CLR,0.00,VWS V12.08,2013-05-10 21:51:00,
2013-05-10 18:01:00,76.8,58.9,29.84,SW,217,0.0,1.0,54,0.00,,FEW110,0.00,VWS V12.08,2013-05-10 22:01:00,
2013-05-10 18:11:00,76.3,60.5,29.84,SW,217,0.0,1.0,58,0.00,,FEW110,0.00,VWS V12.08,2013-05-10 22:11:00,
2013-05-10 18:21:00,75.4,57.6,29.83,SW,217,0.0,2.0,54,0.00,,FEW110,0.00,VWS V12.08,2013-05-10 22:21:00,
2013-05-10 18:31:00,74.9,58.7,29.84,SW,217,0.0,0.0,57,0.00,,FEW110,0.00,VWS V12.08,2013-05-10 22:31:00,
2013-05-10 18:41:00,74.9,56.6,29.84,SSE,161,0.0,6.0,53,0.00,,FEW110,0.00,VWS V12.08,2013-05-10 22:41:00,
2013-05-10 18:51:00,75.1,56.3,29.84,SSE,157,2.0,6.0,52,0.00,,FEW110,0.00,VWS V12.08,2013-05-10 22:51:00,
2013-05-10 19:01:00,74.9,56.1,29.84,SSE,157,2.0,2.0,52,0.00,,SCT100,0.00,VWS V12.08,2013-05-10 23:01:00,
2013-05-10 19:11:00,74.9,57.2,29.84,SSE,157,2.0,2.0,54,0.00,,SCT100,0.00,VWS V12.08,2013-05-10 23:11:00,
2013-05-10 19:21:00,74.4,58.2,29.84,SSE,157,2.0,2.0,57,0.00,,SCT100,0.00,VWS V12.08,2013-05-10 23:21:00,
2013-05-10 19:31:00,73.9,57.7,29.84,SSE,157,2.0,2.0,57,0.00,,SCT100,0.00,VWS V12.08,2013-05-10 23:31:00,
2013-05-10 19:41:00,73.2,57.1,29.84,SSE,157,2.0,2.0,57,0.00,,SCT100,0.00,VWS V12.08,2013-05-10 23:41:00,
2013-05-10 19:51:00,72.5,57.8,29.83,SSE,157,2.0,2.0,60,0.00,,SCT100,0.00,VWS V12.08,2013-05-10 23:51:00,
2013-05-10 20:01:00,72.0,56.9,29.84,SSE,157,2.0,2.0,59,0.00,,CLR,0.00,VWS V12.08,2013-05-11 00:01:00,
2013-05-10 20:11:00,71.1,58.8,29.84,SSE,157,2.0,2.0,65,0.00,,CLR,0.00,VWS V12.08,2013-05-11 00:11:00,
2013-05-10 20:21:00,70.1,58.2,29.84,SSE,157,2.0,2.0,66,0.00,,CLR,0.00,VWS V12.08,2013-05-11 00:21:00,
2013-05-10 20:31:00,69.3,57.0,29.83,SSE,157,2.0,2.0,65,0.00,,CLR,0.00,VWS V12.08,2013-05-11 00:31:00,
2013-05-10 20:41:00,68.6,58.0,29.83,SSE,157,2.0,2.0,69,0.00,,CLR,0.00,VWS V12.08,2013-05-11 00:41:00,
2013-05-10 20:51:00,67.9,57.8,29.84,SSE,157,2.0,2.0,70,0.00,,CLR,0.00,VWS V12.08,2013-05-11 00:51:00,
2013-05-10 21:01:00,67.4,58.1,29.84,SSE,157,2.0,2.0,72,0.00,,CLR,0.00,VWS V12.08,2013-05-11 01:01:00,
2013-05-10 21:11:00,67.3,58.0,29.84,SSE,157,2.0,2.0,72,0.00,,CLR,0.00,VWS V12.08,2013-05-11 01:11:00,
2013-05-10 21:21:00,67.1,57.8,29.84,SSE,157,2.0,2.0,72,0.00,,CLR,0.00,VWS V12.08,2013-05-11 01:21:00,
2013-05-10 21:31:00,67.3,58.0,29.84,SSE,157,2.0,2.0,72,0.00,,CLR,0.00,VWS V12.08,2013-05-11 01:31:00,
2013-05-10 21:41:00,67.1,57.8,29.84,SSE,157,2.0,2.0,72,0.00,,CLR,0.00,VWS V12.08,2013-05-11 01:41:00,
2013-05-10 21:51:00,67.3,57.6,29.84,SSE,157,2.0,2.0,71,0.00,,CLR,0.00,VWS V12.08,2013-05-11 01:51:00,
2013-05-10 22:01:00,67.4,58.5,29.84,SSE,157,2.0,2.0,73,0.00,,CLR,0.00,VWS V12.08,2013-05-11 02:01:00,
2013-05-10 22:11:00,67.6,58.3,29.84,SSE,157,2.0,2.0,72,0.00,,CLR,0.00,VWS V12.08,2013-05-11 02:11:00,
2013-05-10 22:21:00,67.6,58.3,29.83,SSE,157,2.0,2.0,72,0.00,,CLR,0.00,VWS V12.08,2013-05-11 02:21:00,
2013-05-10 22:31:00,67.4,58.5,29.85,SSE,157,2.0,2.0,73,0.00,,CLR,0.00,VWS V12.08,2013-05-11 02:31:00,
2013-05-10 22:41:00,67.9,58.5,29.85,SSE,157,2.0,2.0,72,0.00,,CLR,0.00,VWS V12.08,2013-05-11 02:41:00,
2013-05-10 22:51:00,68.3,61.2,29.86,SSE,157,2.0,2.0,78,0.01,,CLR,0.01,VWS V12.08,2013-05-11 02:51:00,
2013-05-10 23:01:00,67.3,61.6,29.87,SSE,157,2.0,2.0,82,0.01,,CLR,0.01,VWS V12.08,2013-05-11 03:01:00,
2013-05-10 23:11:00,65.5,61.9,29.87,SSE,157,2.0,2.0,88,0.04,,CLR,0.04,VWS V12.08,2013-05-11 03:11:00,
2013-05-10 23:21:00,64.2,61.8,29.86,SSE,157,2.0,2.0,92,0.08,,CLR,0.08,VWS V12.08,2013-05-11 03:21:00,
2013-05-10 23:31:00,63.5,62.0,29.86,SSE,157,2.0,2.0,95,0.13,,CLR,0.13,VWS V12.08,2013-05-11 03:31:00,
2013-05-10 23:41:00,63.2,62.0,29.86,SSE,157,2.0,2.0,96,0.16,,CLR,0.16,VWS V12.08,2013-05-11 03:41:00,
2013-05-10 23:51:00,63.1,62.2,29.85,SSE,157,2.0,2.0,97,0.22,,CLR,0.22,VWS V12.08,2013-05-11 03:51:00,